La Grande, OR

7:55 AM PDT on October 21, 2017 (GMT -0700)
La Grande-Union County

Weather History for KLGD - September, 2012

Change the Weather History Date:

Sunday, September 9, 2012

  Actual Average Record
Temperature  
Mean Temperature 70 °F -  
Max Temperature 84 °F 75 °F 93 °F (2011)
Min Temperature 55 °F 44 °F 31 °F (1970)
Cooling Degree Days 4    
Growing Degree Days 20 (Base 50)    
Moisture  
Dew Point 34 °F    
Average Humidity 25    
Maximum Humidity 47    
Minimum Humidity 14    
Precipitation  
Precipitation 0.05 in - - ()
Sea Level Pressure  
Sea Level Pressure 29.90 in    
Wind  
Wind Speed 10 mph (NW)    
Max Wind Speed 21 mph    
Max Gust Speed 26 mph    
Visibility 10 miles    
Events      
Averages and records for this station are not official NWS values.
T = Trace of Precipitation, MM = Missing Value Source: NWS Daily Summary

Daily Weather History Graph

Daily Weather History Graph

Search for Another Location

Airport or City:

Trip Planner

Search our weather history database for the weather conditions in past years. The results will help you decide how hot, cold, wet, or windy it might be!

Date:

Astronomy

Sep. 09, 2012 Rise Set
Actual Time 6:24 AM PDT 7:13 PM PDT
Civil Twilight 5:54 AM PDT 7:43 PM PDT
Nautical Twilight 5:18 AM PDT 8:18 PM PDT
Astronomical Twilight 4:41 AM PDT 8:55 PM PDT
Moon No Moon Rise 3:14 PM PDT (9/9)
Length of Visible Light 13h 49m
Length of Day
12h 49m
Last Quarter, 38% of the Moon is Illuminated
Sep 9
Last Quarter
Sep 15
New
Sep 22
First Quarter
Sep 29
Full
Oct 8
Last Quarter

Hourly Weather History & Observations

Time (PDT) Temp. Dew Point Humidity Pressure Visibility Wind Dir Wind Speed Gust Speed Precip Events Conditions
12:15 AM 73.4 °F 30.2 °F 20% 29.88 in 10.0 mi SE 5.8 mph - N/A   Clear
12:35 AM 75.2 °F 30.2 °F 19% 29.88 in 10.0 mi South 11.5 mph - N/A   Clear
12:55 AM 75.2 °F 30.2 °F 19% 29.88 in 10.0 mi South 9.2 mph - N/A   Clear
1:15 AM 75.2 °F 30.2 °F 19% 29.88 in 10.0 mi SE 3.5 mph - N/A   Clear
1:35 AM 73.4 °F 30.2 °F 20% 29.87 in 10.0 mi Calm Calm - N/A   Clear
1:55 AM 77.0 °F 30.2 °F 18% 29.88 in 10.0 mi SSE 4.6 mph - N/A   Clear
2:15 AM 75.2 °F 30.2 °F 19% 29.87 in 10.0 mi ESE 6.9 mph - N/A   Clear
2:35 AM 71.6 °F 30.2 °F 22% 29.87 in 10.0 mi WNW 5.8 mph - N/A   Clear
2:55 AM 71.6 °F 33.8 °F 25% 29.87 in 10.0 mi NNW 9.2 mph - N/A   Clear
3:15 AM 71.6 °F 33.8 °F 25% 29.87 in 10.0 mi NNW 8.1 mph - N/A   Clear
3:35 AM 69.8 °F 33.8 °F 27% 29.87 in 10.0 mi Calm Calm - N/A   Clear
3:55 AM 69.8 °F 33.8 °F 27% 29.86 in 10.0 mi NW 10.4 mph - N/A   Clear
4:15 AM 71.6 °F 33.8 °F 25% 29.87 in 10.0 mi NW 8.1 mph - N/A   Clear
4:35 AM 71.6 °F 33.8 °F 25% 29.87 in 10.0 mi NW 15.0 mph - N/A   Partly Cloudy
4:55 AM 71.6 °F 35.6 °F 27% 29.87 in 10.0 mi NW 10.4 mph - N/A   Mostly Cloudy
5:15 AM 71.6 °F 35.6 °F 27% 29.87 in 10.0 mi Calm Calm - N/A   Scattered Clouds
5:35 AM 71.6 °F 35.6 °F 27% 29.87 in 10.0 mi NW 12.7 mph - N/A   Partly Cloudy
5:55 AM 71.6 °F 35.6 °F 27% 29.87 in 10.0 mi WNW 11.5 mph - N/A   Clear
6:35 AM 69.8 °F 33.8 °F 27% 29.88 in 10.0 mi WNW 15.0 mph 21.9 mph N/A   Clear
7:15 AM 71.6 °F 35.6 °F 27% 29.90 in 10.0 mi WNW 16.1 mph 21.9 mph N/A   Clear
7:35 AM 71.6 °F 35.6 °F 27% 29.90 in 10.0 mi WNW 18.4 mph 23.0 mph N/A   Clear
7:55 AM 71.6 °F 37.4 °F 29% 29.90 in 10.0 mi WNW 18.4 mph 26.5 mph N/A   Clear
8:35 AM 69.8 °F 35.6 °F 28% 29.92 in 10.0 mi West 20.7 mph - N/A   Clear
8:55 AM 69.8 °F 35.6 °F 28% 29.93 in 10.0 mi West 15.0 mph - N/A   Clear
9:15 AM 73.4 °F 37.4 °F 27% 29.93 in 10.0 mi WNW 9.2 mph - N/A   Clear
9:35 AM 75.2 °F 39.2 °F 27% 29.93 in 10.0 mi WNW 10.4 mph 16.1 mph N/A   Clear
9:55 AM 77.0 °F 37.4 °F 24% 29.93 in 10.0 mi NW 12.7 mph - N/A   Clear
10:15 AM 77.0 °F 37.4 °F 24% 29.93 in 10.0 mi NW 11.5 mph - N/A   Clear
10:35 AM 78.8 °F 37.4 °F 23% 29.93 in 10.0 mi NNW 10.4 mph - N/A   Partly Cloudy
10:55 AM 78.8 °F 37.4 °F 23% 29.93 in 10.0 mi NNW 8.1 mph 17.3 mph N/A   Clear
11:15 AM 80.6 °F 37.4 °F 21% 29.92 in 10.0 mi NW 10.4 mph - N/A   Clear
11:35 AM 82.4 °F 35.6 °F 19% 29.91 in 10.0 mi North 10.4 mph - N/A   Clear
11:55 AM 82.4 °F 30.2 °F 15% 29.91 in 10.0 mi North 5.8 mph - N/A   Clear
12:15 PM 82.4 °F 28.4 °F 14% 29.91 in 10.0 mi North 5.8 mph - N/A   Clear
12:35 PM 82.4 °F 28.4 °F 14% 29.90 in 10.0 mi ENE 8.1 mph - N/A   Clear
12:55 PM 82.4 °F 32.0 °F 16% 29.90 in 10.0 mi Calm Calm - N/A   Clear
1:15 PM 84.2 °F 30.2 °F 14% 29.89 in 10.0 mi Calm Calm - 0.05 in   Clear
1:35 PM 84.2 °F 33.8 °F 16% 29.89 in 10.0 mi NW 5.8 mph - 0.05 in   Clear
1:55 PM 84.2 °F 32.0 °F 15% 29.88 in 10.0 mi NNE 5.8 mph - 0.05 in   Clear
2:15 PM 84.2 °F 32.0 °F 15% 29.88 in 10.0 mi NNE 6.9 mph - N/A   Clear
2:35 PM 82.4 °F 32.0 °F 16% 29.87 in 9.0 mi East 4.6 mph - N/A   Clear
2:55 PM 84.2 °F 33.8 °F 16% 29.87 in 10.0 mi NNW 12.7 mph 16.1 mph N/A   Clear
3:15 PM 84.2 °F 35.6 °F 18% 29.87 in 10.0 mi WNW 16.1 mph 20.7 mph N/A   Clear
3:35 PM 84.2 °F 35.6 °F 18% 29.86 in 10.0 mi WNW 17.3 mph - N/A   Clear
3:55 PM 82.4 °F 33.8 °F 17% 29.86 in 10.0 mi NW 18.4 mph - N/A   Clear
4:15 PM 80.6 °F 33.8 °F 18% 29.86 in 10.0 mi NW 20.7 mph - N/A   Clear
4:35 PM 80.6 °F 32.0 °F 17% 29.87 in 10.0 mi NW 18.4 mph 25.3 mph N/A   Clear
4:55 PM 78.8 °F 30.2 °F 17% 29.87 in 10.0 mi NW 19.6 mph 24.2 mph N/A   Clear
5:15 PM 77.0 °F 30.2 °F 18% 29.88 in 10.0 mi NW 20.7 mph 26.5 mph N/A   Clear
5:35 PM 75.2 °F 32.0 °F 21% 29.89 in 10.0 mi NW 17.3 mph 23.0 mph N/A   Clear
5:55 PM 73.4 °F 33.8 °F 23% 29.90 in 10.0 mi NW 16.1 mph 19.6 mph N/A   Clear
6:15 PM 71.6 °F 32.0 °F 23% 29.90 in 10.0 mi NW 15.0 mph 26.5 mph N/A   Clear
6:35 PM 69.8 °F 33.8 °F 27% 29.91 in 10.0 mi WNW 18.4 mph 23.0 mph N/A   Clear
6:55 PM 69.8 °F 33.8 °F 27% 29.91 in 10.0 mi WNW 16.1 mph 20.7 mph N/A   Clear
7:15 PM 69.8 °F 33.8 °F 27% 29.92 in 10.0 mi WNW 17.3 mph - N/A   Clear
7:35 PM 66.2 °F 33.8 °F 30% 29.93 in 10.0 mi WNW 19.6 mph 24.2 mph N/A   Clear
7:55 PM 66.2 °F 33.8 °F 30% 29.94 in 10.0 mi WNW 12.7 mph - N/A   Clear
8:15 PM 66.2 °F 33.8 °F 30% 29.95 in 10.0 mi NW 12.7 mph - N/A   Clear
8:35 PM 62.6 °F 33.8 °F 34% 29.96 in 10.0 mi North 6.9 mph - N/A   Clear
8:55 PM 60.8 °F 33.8 °F 36% 29.96 in 10.0 mi North - - N/A   Clear
9:15 PM 59.0 °F 32.0 °F 36% 29.96 in 10.0 mi North 9.2 mph - N/A   Clear
9:35 PM 60.8 °F 33.8 °F 36% 29.96 in 10.0 mi North 8.1 mph - N/A   Clear
9:55 PM 59.0 °F 33.8 °F 39% 29.96 in 10.0 mi North 6.9 mph - N/A   Clear
10:15 PM 57.2 °F 33.8 °F 41% 29.96 in 10.0 mi NW 6.9 mph - N/A   Clear
10:35 PM 59.0 °F 33.8 °F 39% 29.96 in 10.0 mi NW 8.1 mph - N/A   Clear
10:55 PM 57.2 °F 33.8 °F 41% 29.97 in 10.0 mi WNW 10.4 mph - N/A   Clear
11:15 PM 57.2 °F 33.8 °F 41% 29.97 in 10.0 mi WNW 11.5 mph - N/A   Clear
11:35 PM 55.4 °F 33.8 °F 44% 29.97 in 10.0 mi West 11.5 mph - N/A   Clear
11:55 PM 55.4 °F 35.6 °F 47% 29.98 in 10.0 mi West 12.7 mph - N/A   Clear